Regional Weather Roundup
Issued by NWS San Angelo, TX

Home | Current Version | Previous Version | Text Only | Print | Product List | Glossary On
Versions: 1 2 3 4 5 6 7 8 9 10 11 12 13 14 15 16 17 18 19 20 21 22 23 24 25 26 27 28 29 30 31 32 33 34 35 36 37 38 39 40 41 42 43 44 45 46 47 48 49 50
000
ASUS44 KSJT 191058
RWRSJT
WEST CENTRAL TEXAS REGIONAL WEATHER ROUNDUP
NATIONAL WEATHER SERVICE SAN ANGELO TX
600 AM CDT THU APR 19 2018

NOTE: "FAIR" INDICATES FEW OR NO CLOUDS BELOW 12,000 FEET WITH NO
SIGNIFICANT WEATHER AND/OR OBSTRUCTIONS TO VISIBILITY.

TXZ049-054-064>066-071>073-076>078-098-099-113-114-127-128-139-140-
154-155-168>170-191200
...LOCATIONS ACROSS WEST CENTRAL TEXAS...

CITY           SKY/WX    TMP DP  RH WIND       PRES   REMARKS
SAN ANGELO     PTCLDY    43  28  55 NE3       30.27R
ABILENE        CLEAR     47  29  49 E8        30.30R
DYESS AFB      NOT AVBL
JUNCTION       NOT AVBL
SWEETWATER     NOT AVBL
BROWNWOOD      NOT AVBL
COLEMAN        NOT AVBL
SONORA         NOT AVBL
OZONA          NOT AVBL
BRADY          NOT AVBL
$$

TEXAS PANHANDLE/OKLAHOMA PANHANDLE

CITY           SKY/WX    TMP DP  RH WIND       PRES   REMARKS
AMARILLO       CLOUDY    38  19  46 SE10      30.34R WCI  31
BORGER         CLEAR     40  17  39 E3        30.35R
CANADIAN       NOT AVBL
DALHART        PTCLDY    36  17  46 E6        30.34R WCI  31
DUMAS          NOT AVBL
GUYMON         NOT AVBL
HEREFORD       NOT AVBL
PAMPA          NOT AVBL
PERRYTON       NOT AVBL
$$

SOUTHERN PANHANDLE/SOUTH PLAINS/ROLLING PLAINS

CITY           SKY/WX    TMP DP  RH WIND       PRES   REMARKS
LUBBOCK        PTCLDY    43  16  33 E10       30.32R WCI  37
SNYDER         NOT AVBL
CHILDRESS      CLOUDY    45  28  51 CALM      30.35R
SEMINOLE       NOT AVBL
$$

PERMIAN BASIN

CITY           SKY/WX    TMP DP  RH WIND       PRES   REMARKS
MIDLAND        CLOUDY    52  22  30 E7        30.27R
ODESSA           N/A    N/A N/A N/A MISG      30.27R
WINK           CLOUDY    53  21  28 E7        30.23S
$$

FAR WEST/SOUTHWEST MOUNTAINS/TRANS PECOS

CITY           SKY/WX    TMP DP  RH WIND       PRES   REMARKS
ALPINE         NOT AVBL
DRYDEN         NOT AVBL
EL PASO        MOCLDY    60  11  14 E10       30.13R
FORT STOCKTON  CLOUDY    58  23  26 E13       30.25R
GUADALUPE PASS MOCLDY    50  15  24 NE35G41   30.24F
MARFA          NOT AVBL
PECOS          NOT AVBL
$$

DALLAS/FORT WORTH METROPLEX

CITY           SKY/WX    TMP DP  RH WIND       PRES   REMARKS
DFW AIRPORT    CLEAR     52  33  48 N6        30.28R
FTW MEACHAM    CLEAR     51  36  56 N3        30.29R
DAL-EXECUTIVE  CLEAR     56  30  37 NE7       30.28R
GRAND PRAIRIE  NOT AVBL
ADDISON        CLEAR     54  30  40 N8        30.29S
MESQUITE       NOT AVBL
LANCASTER      NOT AVBL
$$

NORTH CENTRAL TEXAS

CITY           SKY/WX    TMP DP  RH WIND       PRES   REMARKS
SHRMAN/DENISON NOT AVBL
GAINESVILLE    NOT AVBL
BRIDGEPORT     NOT AVBL
DENTON         CLEAR     43  35  73 NW5       30.30R
WAXAHACHIE     NOT AVBL
GRANBURY       NOT AVBL
$$

WESTERN NORTH TEXAS

CITY           SKY/WX    TMP DP  RH WIND       PRES   REMARKS
WICHITA FALLS  PTCLDY    45  31  58 N3        30.32R
VERNON         NOT AVBL
BRECKENRIDGE   NOT AVBL
COMANCHE       NOT AVBL
$$

CENTRAL AND SOUTH CENTRAL TEXAS

CITY           SKY/WX    TMP DP  RH WIND       PRES   REMARKS
AUSTIN/BERGSTM CLEAR     56  37  49 NE13      30.22R
WACO           CLEAR     52  35  52 N9        30.27R
HILLSBORO      NOT AVBL
TEMPLE         PTCLDY    55  35  47 N10       30.27
KILLEEN-GRAY   NOT AVBL
FORT HOOD      NOT AVBL
GEORGETOWN     NOT AVBL
LAGO VISTA     NOT AVBL
SAN MARCOS     NOT AVBL
NEW BRAUNFELS  CLOUDY    58  37  45 NE9       30.20R
RANDOLPH AFB   NOT AVBL
SAN ANTONIO    MOCLDY    61  35  37 NE5       30.22R
STINSON        CLOUDY    65  36  34 NE8       30.19R
PLEASANTON     NOT AVBL
LA GRANGE      NOT AVBL
GIDDINGS       NOT AVBL
$$

EAST TEXAS

CITY           SKY/WX    TMP DP  RH WIND       PRES   REMARKS
PARIS          NOT AVBL
CLARKSVILLE    NOT AVBL
TYLER          CLEAR     53  32  44 N8        30.25R
LONGVIEW       CLEAR     50  39  66 N6        30.23R
PALESTINE      NOT AVBL
NACOGDOCHES    NOT AVBL
$$

TEXAS HILL COUNTRY AND EDWARDS PLATEAU

CITY           SKY/WX    TMP DP  RH WIND       PRES   REMARKS
LLANO          NOT AVBL
HORSESHOE BAY  NOT AVBL
KERRVILLE      NOT AVBL
FREDERICKSBRG  NOT AVBL
ROCKSPRINGS    NOT AVBL
HONDO          CLEAR     57  38  48 NE12      30.20R
UVALDE         NOT AVBL
DEL RIO        CLEAR     60  31  33 NE3       30.18S
$$

SOUTHEAST TEXAS

CITY           SKY/WX    TMP DP  RH WIND       PRES   REMARKS
COLLEGE STN    CLEAR     59  37  44 N13       30.22R
CALDWELL       NOT AVBL
CROCKETT       NOT AVBL
BRENHAM        NOT AVBL
HUNTSVILLE     CLEAR     54  42  64 CALM      30.23R
CONROE         CLOUDY    62  39  42 N10       30.21R
HOUSTON BUSH   MOCLDY    64  43  46 NE9       30.19R
HOUSTON HOBBY  CLOUDY    68  41  37 NE21G28   30.18R
PERLAND        CLOUDY    68  42  38 NE14G21   30.19R
WHARTON        NOT AVBL
$$

THE UPPER TEXAS COAST

CITY           SKY/WX    TMP DP  RH WIND       PRES   REMARKS
ORANGE         NOT AVBL
PORT ARTHUR    CLOUDY    65  42  43 N16       30.17R
GALVESTON      CLOUDY    69  48  47 NE20      30.17R
ANGLETON       MOCLDY    67  46  47 N9        30.16R
BAY CITY       NOT AVBL
$$

TEXAS COASTAL BEND, RIO GRANDE PLAINS DEEP SOUTH TEXAS

CITY           SKY/WX    TMP DP  RH WIND       PRES   REMARKS
VICTORIA       PTCLDY    67  41  38 NE12      30.17R
BEEVILLE       NOT AVBL
ROCKPORT       CLOUDY    70  60  70 N12       30.14R
PORT ARANSAS   NOT AVBL
PORT LAVACA    NOT AVBL
CORPUS CHRISTI MOCLDY    71  69  93 NE6       30.12F
KINGSVILLE NAS CLOUDY    68  66  94 N8        30.12S
COTULLA        CLOUDY    69  37  30 E14       30.16R
LAREDO         NOT AVBL
BROWNSVILLE    CLOUDY    71  70  96 NE7       30.09F
PORT ISABEL    MOCLDY   N/A N/A N/A E8        30.09S
HEBBRONVILLE   NOT AVBL
MCALLEN        CLOUDY    75  71  87 E7        30.09S
WESLACO        NOT AVBL
FALFURRIAS     NOT AVBL
EDINBURG       NOT AVBL
$$




USA.gov is the U.S. government's official web portal to all federal, state and local government web resources and services.